,,PA_Meas_PMT16A,,PR_Meas_QMR101_102,,RH_Meas_QMH101,,SR_Meas_QMS101,,TA_Meas_QMH101,,GenWind,,GenWind,
time,status,PA,status,PR,status,RH,status,SR,status,TA,status,DirAvg,status,SpdAvg,
2014-04-07, 00:00:04,VALID,920.275,VALID,0,VALID,94.2026,VALID,0,VALID,18.9034,VALID,119,VALID,0.665234,
2014-04-07, 00:01:04,VALID,920.287,VALID,0,VALID,94.355,VALID,0,VALID,18.8853,VALID,119,VALID,0.744922,
2014-04-07, 00:02:04,VALID,920.283,VALID,0,VALID,94.4541,VALID,0,VALID,18.8658,VALID,119,VALID,0.708203,
2014-04-07, 00:03:04,VALID,920.291,VALID,0,VALID,94.538,VALID,0,VALID,18.8059,VALID,119,VALID,1.02422,
2014-04-07, 00:04:04,VALID,920.292,VALID,0,VALID,94.6295,VALID,0,VALID,18.8463,VALID,119,VALID,0.791797,
2014-04-07, 00:05:04,VALID,920.289,VALID,0,VALID,94.6295,VALID,0,VALID,18.8254,VALID,119,VALID,0.624219,
2014-04-07, 00:06:04,VALID,920.31,VALID,0,VALID,94.6523,VALID,0,VALID,18.8463,VALID,119,VALID,0.596875,
2014-04-07, 00:07:04,VALID,920.263,VALID,0,VALID,94.5761,VALID,0,VALID,18.8268,VALID,119,VALID,0.6875,
2014-04-07, 00:08:04,VALID,920.26,VALID,0,VALID,94.5304,VALID,0,VALID,18.8463,VALID,119,VALID,0.870703,
2014-04-07, 00:09:04,VALID,920.242,VALID,0,VALID,94.5456,VALID,0,VALID,18.8463,VALID,119,VALID,0.895312,
2014-04-07, 00:10:04,VALID,920.176,VALID,0,VALID,94.5227,VALID,0,VALID,18.8463,VALID,119,VALID,0.914453,
2014-04-07, 00:11:04,VALID,920.211,VALID,0,VALID,94.5685,VALID,0,VALID,18.8268,VALID,119,VALID,0.698438,
2014-04-07, 00:12:04,VALID,920.197,VALID,0,VALID,94.5685,VALID,0.107441,VALID,18.7864,VALID,119,VALID,0.801172,
2014-04-07, 00:13:04,VALID,920.2,VALID,0,VALID,94.6142,VALID,0,VALID,18.8073,VALID,119,VALID,0.871875,
2014-04-07, 00:14:04,VALID,920.193,VALID,0,VALID,94.6905,VALID,0,VALID,18.8268,VALID,85,VALID,1.20586,
2014-04-07, 00:15:04,VALID,920.181,VALID,0,VALID,94.7057,VALID,0,VALID,18.7864,VALID,85,VALID,1.03125,
2014-04-07, 00:16:04,VALID,920.176,VALID,0,VALID,94.7514,VALID,0,VALID,18.7878,VALID,85,VALID,0.902344,
2014-04-07, 00:17:04,VALID,920.202,VALID,0,VALID,94.8277,VALID,0,VALID,18.7864,VALID,85,VALID,0.988672,
2014-04-07, 00:18:04,VALID,920.16,VALID,0,VALID,94.8963,VALID,0,VALID,18.7878,VALID,85,VALID,0.842578,
2014-04-07, 00:19:04,VALID,920.136,VALID,0,VALID,94.9573,VALID,0,VALID,18.8073,VALID,85,VALID,0.957422,
2014-04-07, 00:20:04,VALID,920.116,VALID,0,VALID,94.9801,VALID,0,VALID,18.8268,VALID,85,VALID,1.40156,
2014-04-07, 00:21:04,VALID,920.123,VALID,0,VALID,95.0106,VALID,0,VALID,18.8073,VALID,85,VALID,1.36055,
2014-04-07, 00:22:04,VALID,920.052,VALID,0,VALID,95.0335,VALID,0,VALID,18.8463,VALID,85,VALID,1.16758,
2014-04-07, 00:23:04,VALID,920.05,VALID,0,VALID,95.0259,VALID,0,VALID,18.8658,VALID,57,VALID,1.31055,
2014-04-07, 00:24:04,VALID,920.031,VALID,0,VALID,95.0335,VALID,0,VALID,18.8853,VALID,59,VALID,1.39805,
2014-04-07, 00:25:04,VALID,920,VALID,0,VALID,95.0259,VALID,0,VALID,18.9034,VALID,58,VALID,1.4082,
2014-04-07, 00:26:04,VALID,920.018,VALID,0,VALID,94.9878,VALID,0,VALID,18.9438,VALID,62,VALID,1.28984,
2014-04-07, 00:27:04,VALID,919.979,VALID,0,VALID,94.9573,VALID,0,VALID,18.9842,VALID,57,VALID,1.49258,
2014-04-07, 00:28:04,VALID,919.955,VALID,0,VALID,94.9344,VALID,0,VALID,18.9828,VALID,53,VALID,1.32227,
2014-04-07, 00:29:04,VALID,919.918,VALID,0,VALID,94.9725,VALID,0,VALID,19.0023,VALID,54,VALID,1.41367,
2014-04-07, 00:30:04,VALID,919.934,VALID,0,VALID,94.9573,VALID,0,VALID,19.0218,VALID,57,VALID,1.55508,
2014-04-07, 00:31:04,VALID,919.921,VALID,0,VALID,95.0106,VALID,0,VALID,19.0218,VALID,55,VALID,1.32344,
2014-04-07, 00:32:04,VALID,919.928,VALID,0,VALID,95.064,VALID,0,VALID,19.0413,VALID,57,VALID,1.3957,
2014-04-07, 00:33:04,VALID,919.925,VALID,0,VALID,95.0792,VALID,0,VALID,19.0413,VALID,65,VALID,0.944141,
2014-04-07, 00:34:04,VALID,919.869,VALID,0,VALID,95.0564,VALID,0,VALID,19.0398,VALID,65,VALID,0.885547,
2014-04-07, 00:35:04,VALID,919.843,VALID,0,VALID,95.0792,VALID,0,VALID,19.0413,VALID,65,VALID,0.863672,
2014-04-07, 00:36:04,VALID,919.813,VALID,0,VALID,95.1174,VALID,0,VALID,19.0608,VALID,80,VALID,0.967188,
2014-04-07, 00:37:04,VALID,919.795,VALID,0,VALID,95.1479,VALID,0,VALID,19.0608,VALID,80,VALID,0.775,
2014-04-07, 00:38:04,VALID,919.751,VALID,0,VALID,95.1555,VALID,0,VALID,19.0413,VALID,80,VALID,0.998047,
2014-04-07, 00:39:04,VALID,919.684,VALID,0,VALID,95.125,VALID,0,VALID,19.0413,VALID,140,VALID,1.25781,
2014-04-07, 00:40:04,VALID,919.66,VALID,0,VALID,95.0716,VALID,0,VALID,18.9619,VALID,157,VALID,1.34805,
2014-04-07, 00:41:04,VALID,919.588,VALID,0,VALID,95.0716,VALID,0,VALID,18.9438,VALID,152,VALID,1.55273,
2014-04-07, 00:42:04,VALID,919.543,VALID,0,VALID,95.1097,VALID,0,VALID,18.8853,VALID,145,VALID,1.79453,
2014-04-07, 00:43:04,VALID,919.518,VALID,0,VALID,95.1479,VALID,0,VALID,18.8463,VALID,146,VALID,1.35938,
2014-04-07, 00:44:04,VALID,919.463,VALID,0,VALID,95.2165,VALID,0,VALID,18.8073,VALID,152,VALID,1.49102,
2014-04-07, 00:45:04,VALID,919.467,VALID,0,VALID,95.2851,VALID,0,VALID,18.7878,VALID,155,VALID,1.47344,
2014-04-07, 00:46:04,VALID,919.436,VALID,0,VALID,95.3308,VALID,0,VALID,18.7084,VALID,157,VALID,1.26289,
2014-04-07, 00:47:04,VALID,919.391,VALID,0,VALID,95.4604,VALID,0.107441,VALID,18.7098,VALID,163,VALID,1.26133,
2014-04-07, 00:48:04,VALID,919.367,VALID,0,VALID,95.4985,VALID,0.107441,VALID,18.6889,VALID,164,VALID,1.86328,
2014-04-07, 00:49:04,VALID,919.384,VALID,0,VALID,95.5748,VALID,0,VALID,18.7098,VALID,145,VALID,1.05273,
2014-04-07, 00:50:04,VALID,919.38,VALID,0,VALID,95.6357,VALID,0,VALID,18.6889,VALID,154,VALID,1.31172,
2014-04-07, 00:51:04,VALID,919.338,VALID,0,VALID,95.6739,VALID,0,VALID,18.7098,VALID,143,VALID,1.45977,
2014-04-07, 00:52:04,VALID,919.346,VALID,0,VALID,95.7272,VALID,0,VALID,18.7098,VALID,141,VALID,0.53125,
2014-04-07, 00:53:04,VALID,919.352,VALID,0,VALID,95.7882,VALID,0,VALID,18.7293,VALID,140,VALID,0.749219,
2014-04-07, 00:54:04,VALID,919.343,VALID,0,VALID,95.8035,VALID,0,VALID,18.7098,VALID,140,VALID,0.792188,
2014-04-07, 00:55:04,VALID,919.351,VALID,0,VALID,95.8492,VALID,0,VALID,18.7098,VALID,138,VALID,1.04531,
2014-04-07, 00:56:04,VALID,919.355,VALID,0,VALID,95.8721,VALID,0,VALID,18.7293,VALID,147,VALID,0.383594,
2014-04-07, 00:57:04,VALID,919.334,VALID,0,VALID,95.8721,VALID,0,VALID,18.7293,VALID,145,VALID,0.644922,
2014-04-07, 00:58:04,VALID,919.342,VALID,0,VALID,95.8873,VALID,0,VALID,18.7098,VALID,140,VALID,0.705469,
2014-04-07, 00:59:04,VALID,919.308,VALID,0,VALID,95.9254,VALID,0,VALID,18.7293,VALID,138,VALID,0.737891,
2014-04-07, 01:00:04,VALID,919.287,VALID,0,VALID,95.9331,VALID,0,VALID,18.7488,VALID,146,VALID,0.973047,
2014-04-07, 01:01:04,VALID,919.288,VALID,0,VALID,95.9483,VALID,0,VALID,18.7697,VALID,140,VALID,1.34102,
2014-04-07, 01:02:04,VALID,919.287,VALID,0,VALID,95.9331,VALID,0,VALID,18.8087,VALID,119,VALID,1.52148,
2014-04-07, 01:03:04,VALID,919.25,VALID,0,VALID,95.9102,VALID,0,VALID,18.8073,VALID,113,VALID,0.975391,
2014-04-07, 01:04:04,VALID,919.193,VALID,0,VALID,95.8797,VALID,0,VALID,18.8477,VALID,120,VALID,1.64961,
2014-04-07, 01:05:04,VALID,919.18,VALID,0,VALID,95.8721,VALID,0,VALID,18.8658,VALID,130,VALID,1.46133,
2014-04-07, 01:06:04,VALID,919.138,VALID,0,VALID,95.8416,VALID,0,VALID,18.8658,VALID,139,VALID,1.35781,
2014-04-07, 01:07:04,VALID,919.106,VALID,0,VALID,95.8035,VALID,0,VALID,18.8658,VALID,131,VALID,1.41016,
2014-04-07, 01:08:04,VALID,919.063,VALID,0,VALID,95.7806,VALID,0,VALID,18.8867,VALID,139,VALID,1.05938,
2014-04-07, 01:09:04,VALID,919.016,VALID,0,VALID,95.7654,VALID,0,VALID,18.8658,VALID,135,VALID,0.942187,
2014-04-07, 01:10:04,VALID,918.977,VALID,0,VALID,95.7272,VALID,0,VALID,18.8867,VALID,142,VALID,1.27656,
2014-04-07, 01:11:04,VALID,918.949,VALID,0,VALID,95.7044,VALID,0,VALID,18.8658,VALID,139,VALID,1.51602,
2014-04-07, 01:12:04,VALID,918.928,VALID,0,VALID,95.6891,VALID,0,VALID,18.8658,VALID,144,VALID,1.30781,
2014-04-07, 01:13:04,VALID,918.903,VALID,0,VALID,95.6815,VALID,0,VALID,18.8463,VALID,132,VALID,1.16406,
2014-04-07, 01:14:04,VALID,918.85,VALID,0,VALID,95.6739,VALID,0,VALID,18.8268,VALID,122,VALID,1.44961,
2014-04-07, 01:15:04,VALID,918.817,VALID,0,VALID,95.651,VALID,0,VALID,18.8268,VALID,138,VALID,1.11719,
2014-04-07, 01:16:04,VALID,918.775,VALID,0,VALID,95.6662,VALID,0,VALID,18.8477,VALID,133,VALID,1.50273,
2014-04-07, 01:17:04,VALID,918.728,VALID,0,VALID,95.6662,VALID,0,VALID,18.8268,VALID,132,VALID,1.39648,
2014-04-07, 01:18:04,VALID,918.693,VALID,0,VALID,95.651,VALID,0,VALID,18.8073,VALID,144,VALID,1.54492,
2014-04-07, 01:19:04,VALID,918.672,VALID,0,VALID,95.6434,VALID,0,VALID,18.8268,VALID,139,VALID,1.27305,
2014-04-07, 01:20:04,VALID,918.633,VALID,0,VALID,95.6434,VALID,0,VALID,18.8268,VALID,142,VALID,1.52695,
2014-04-07, 01:21:04,VALID,918.642,VALID,0,VALID,95.6205,VALID,0,VALID,18.8268,VALID,143,VALID,1.65781,
2014-04-07, 01:22:04,VALID,918.602,VALID,0,VALID,95.6281,VALID,0,VALID,18.8463,VALID,138,VALID,1.39922,
2014-04-07, 01:23:04,VALID,918.561,VALID,0,VALID,95.5824,VALID,0,VALID,18.8463,VALID,147,VALID,1.29961,
2014-04-07, 01:24:04,VALID,918.583,VALID,0,VALID,95.5748,VALID,0,VALID,18.8477,VALID,156,VALID,1.27148,
2014-04-07, 01:25:04,VALID,918.6,VALID,0,VALID,95.5595,VALID,0,VALID,18.7878,VALID,151,VALID,1.59453,
2014-04-07, 01:26:04,VALID,918.609,VALID,0,VALID,95.5595,VALID,0,VALID,18.8087,VALID,151,VALID,1.60078,
2014-04-07, 01:27:04,VALID,918.615,VALID,0,VALID,95.59,VALID,0,VALID,18.7892,VALID,150,VALID,1.26016,
2014-04-07, 01:28:04,VALID,918.561,VALID,0,VALID,95.5824,VALID,0,VALID,18.7683,VALID,148,VALID,1.12812,
2014-04-07, 01:29:04,VALID,918.539,VALID,0,VALID,95.5671,VALID,0,VALID,18.7683,VALID,139,VALID,1.26797,
2014-04-07, 01:30:04,VALID,918.488,VALID,0,VALID,95.5595,VALID,0,VALID,18.7697,VALID,146,VALID,1.76602,
2014-04-07, 01:31:04,VALID,918.497,VALID,0,VALID,95.5671,VALID,0,VALID,18.7488,VALID,129,VALID,1.21328,
2014-04-07, 01:32:04,VALID,918.451,VALID,0,VALID,95.5595,VALID,0,VALID,18.7488,VALID,133,VALID,0.830078,
2014-04-07, 01:33:04,VALID,918.449,VALID,0,VALID,95.5519,VALID,0,VALID,18.7488,VALID,128,VALID,0.766797,
2014-04-07, 01:34:04,VALID,918.431,VALID,0,VALID,95.59,VALID,0,VALID,18.7503,VALID,129,VALID,1.43203,
2014-04-07, 01:35:04,VALID,918.435,VALID,0,VALID,95.5671,VALID,0,VALID,18.7293,VALID,131,VALID,1.11523,
2014-04-07, 01:36:04,VALID,918.384,VALID,0,VALID,95.5671,VALID,0,VALID,18.7488,VALID,120,VALID,0.901172,
2014-04-07, 01:37:04,VALID,918.348,VALID,0,VALID,95.529,VALID,0,VALID,18.7488,VALID,127,VALID,1.45273,
2014-04-07, 01:38:04,VALID,918.341,VALID,0,VALID,95.5138,VALID,0,VALID,18.7488,VALID,129,VALID,1.55273,
2014-04-07, 01:39:04,VALID,918.31,VALID,0,VALID,95.4833,VALID,0,VALID,18.7683,VALID,124,VALID,1.32852,
2014-04-07, 01:40:04,VALID,918.297,VALID,0,VALID,95.4604,VALID,0,VALID,18.7892,VALID,126,VALID,1.36016,
2014-04-07, 01:41:04,VALID,918.286,VALID,0,VALID,95.4528,VALID,0,VALID,18.7683,VALID,118,VALID,1.11953,
2014-04-07, 01:42:04,VALID,918.278,VALID,0,VALID,95.4223,VALID,0,VALID,18.7683,VALID,106,VALID,1.10977,
2014-04-07, 01:43:04,VALID,918.31,VALID,0,VALID,95.3918,VALID,0,VALID,18.7488,VALID,109,VALID,0.778516,
2014-04-07, 01:44:04,VALID,918.311,VALID,0,VALID,95.3613,VALID,0,VALID,18.7488,VALID,109,VALID,0.555078,
2014-04-07, 01:45:04,VALID,918.306,VALID,0,VALID,95.3232,VALID,0,VALID,18.7488,VALID,109,VALID,0.551562,
2014-04-07, 01:46:04,VALID,918.295,VALID,0,VALID,95.3003,VALID,0,VALID,18.7308,VALID,101,VALID,0.964844,
2014-04-07, 01:47:04,VALID,918.253,VALID,0,VALID,95.3079,VALID,0,VALID,18.7098,VALID,117,VALID,1.0543,
2014-04-07, 01:48:04,VALID,918.271,VALID,0,VALID,95.3079,VALID,0,VALID,18.7293,VALID,145,VALID,0.916016,
2014-04-07, 01:49:04,VALID,918.267,VALID,0,VALID,95.3308,VALID,0,VALID,18.7098,VALID,150,VALID,0.852344,
2014-04-07, 01:50:04,VALID,918.246,VALID,0,VALID,95.3384,VALID,0,VALID,18.7293,VALID,150,VALID,0.491797,
2014-04-07, 01:51:04,VALID,918.278,VALID,0,VALID,95.3308,VALID,0.107441,VALID,18.7098,VALID,126,VALID,0.425781,
2014-04-07, 01:52:04,VALID,918.248,VALID,0,VALID,95.3308,VALID,0,VALID,18.7098,VALID,126,VALID,0.830469,
2014-04-07, 01:53:04,VALID,918.206,VALID,0,VALID,95.3461,VALID,0.107441,VALID,18.6694,VALID,129,VALID,0.80625,
2014-04-07, 01:54:04,VALID,918.202,VALID,0,VALID,95.3384,VALID,0.107441,VALID,18.6889,VALID,136,VALID,1.13477,
2014-04-07, 01:55:04,VALID,918.187,VALID,0,VALID,95.3461,VALID,0.107441,VALID,18.7098,VALID,141,VALID,1.43633,
2014-04-07, 01:56:04,VALID,918.144,VALID,0,VALID,95.3461,VALID,0,VALID,18.7098,VALID,141,VALID,1.23711,
2014-04-07, 01:57:04,VALID,918.162,VALID,0,VALID,95.3232,VALID,0.107441,VALID,18.7488,VALID,130,VALID,1.7168,
2014-04-07, 01:58:04,VALID,918.135,VALID,0,VALID,95.3003,VALID,0.107441,VALID,18.7474,VALID,135,VALID,1.26523,
2014-04-07, 01:59:04,VALID,918.142,VALID,0,VALID,95.2622,VALID,0.107441,VALID,18.7683,VALID,152,VALID,1.42422,
2014-04-07, 02:00:04,VALID,918.144,VALID,0,VALID,95.2012,VALID,0,VALID,18.7669,VALID,141,VALID,1.2625,
2014-04-07, 02:01:04,VALID,918.124,VALID,0,VALID,95.1402,VALID,0,VALID,18.8073,VALID,136,VALID,1.04766,
2014-04-07, 02:02:04,VALID,918.134,VALID,0,VALID,95.0869,VALID,0,VALID,18.7864,VALID,148,VALID,0.778906,
2014-04-07, 02:03:04,VALID,918.122,VALID,0,VALID,95.0335,VALID,0.107441,VALID,18.8059,VALID,147,VALID,1.07422,
2014-04-07, 02:04:04,VALID,918.105,VALID,0,VALID,94.9725,VALID,0,VALID,18.7864,VALID,147,VALID,1.08203,
2014-04-07, 02:05:04,VALID,918.119,VALID,0,VALID,94.9496,VALID,0,VALID,18.8073,VALID,160,VALID,0.962891,
2014-04-07, 02:06:04,VALID,918.124,VALID,0,VALID,94.9115,VALID,0,VALID,18.8268,VALID,152,VALID,1.23555,
2014-04-07, 02:07:04,VALID,918.137,VALID,0,VALID,94.8429,VALID,0,VALID,18.8463,VALID,147,VALID,0.969141,
2014-04-07, 02:08:04,VALID,918.136,VALID,0,VALID,94.7896,VALID,0,VALID,18.8463,VALID,146,VALID,1.03828,
2014-04-07, 02:09:04,VALID,918.151,VALID,0,VALID,94.7057,VALID,0,VALID,18.8853,VALID,178,VALID,0.336328,
2014-04-07, 02:10:04,VALID,918.134,VALID,0,VALID,94.6142,VALID,0,VALID,18.9048,VALID,154,VALID,1.08477,
2014-04-07, 02:11:04,VALID,918.161,VALID,0,VALID,94.5075,VALID,0,VALID,18.8853,VALID,169,VALID,0.816406,
2014-04-07, 02:12:04,VALID,918.122,VALID,0,VALID,94.3779,VALID,0,VALID,18.9257,VALID,137,VALID,0.483594,
2014-04-07, 02:13:04,VALID,918.121,VALID,0,VALID,94.2864,VALID,0,VALID,18.8853,VALID,182,VALID,0.261719,
2014-04-07, 02:14:04,VALID,918.119,VALID,0,VALID,94.2483,VALID,0,VALID,18.9062,VALID,181,VALID,0.487109,
2014-04-07, 02:15:04,VALID,918.079,VALID,0,VALID,94.2178,VALID,0,VALID,18.9062,VALID,142,VALID,1.05156,
2014-04-07, 02:16:04,VALID,918.057,VALID,0,VALID,94.1797,VALID,0,VALID,18.8853,VALID,142,VALID,1.1625,
2014-04-07, 02:17:04,VALID,918.049,VALID,0,VALID,94.1492,VALID,0,VALID,18.8658,VALID,145,VALID,1.51211,
2014-04-07, 02:18:04,VALID,918.03,VALID,0,VALID,94.0577,VALID,0,VALID,18.8658,VALID,137,VALID,1.34883,
2014-04-07, 02:19:04,VALID,918.02,VALID,0,VALID,93.951,VALID,0,VALID,18.8853,VALID,134,VALID,1.04492,
2014-04-07, 02:20:04,VALID,918.034,VALID,0,VALID,93.7604,VALID,0,VALID,18.9048,VALID,127,VALID,1.15547,
2014-04-07, 02:21:04,VALID,918.043,VALID,0,VALID,93.5927,VALID,0,VALID,18.9243,VALID,145,VALID,1,
2014-04-07, 02:22:04,VALID,918.047,VALID,0,VALID,93.5164,VALID,0,VALID,18.9452,VALID,151,VALID,0.983203,
2014-04-07, 02:23:04,VALID,918.056,VALID,0,VALID,93.4478,VALID,0,VALID,18.9452,VALID,152,VALID,0.793359,
2014-04-07, 02:24:04,VALID,918.054,VALID,0,VALID,93.3868,VALID,0,VALID,18.9452,VALID,152,VALID,0.600391,
2014-04-07, 02:25:04,VALID,918.074,VALID,0,VALID,93.3868,VALID,0,VALID,18.9452,VALID,152,VALID,1.02773,
2014-04-07, 02:26:04,VALID,918.016,VALID,0,VALID,93.3411,VALID,0,VALID,18.9438,VALID,159,VALID,0.727734,
2014-04-07, 02:27:04,VALID,918.001,VALID,0,VALID,93.2801,VALID,0,VALID,18.9438,VALID,151,VALID,0.944531,
2014-04-07, 02:28:04,VALID,918.01,VALID,0,VALID,93.2344,VALID,0,VALID,18.9243,VALID,159,VALID,0.743359,
2014-04-07, 02:29:04,VALID,918.023,VALID,0,VALID,93.2344,VALID,0,VALID,18.9048,VALID,143,VALID,0.666406,
2014-04-07, 02:30:04,VALID,918.016,VALID,0,VALID,93.2725,VALID,0,VALID,18.9048,VALID,138,VALID,0.866406,
2014-04-07, 02:31:04,VALID,917.998,VALID,0,VALID,93.2801,VALID,0,VALID,18.9257,VALID,142,VALID,1.29961,
2014-04-07, 02:32:04,VALID,917.994,VALID,0,VALID,93.2344,VALID,0,VALID,18.9048,VALID,129,VALID,1.34063,
2014-04-07, 02:33:04,VALID,917.969,VALID,0,VALID,93.1581,VALID,0,VALID,18.9048,VALID,138,VALID,1.10977,
2014-04-07, 02:34:04,VALID,917.983,VALID,0,VALID,93.0819,VALID,0,VALID,18.9243,VALID,111,VALID,0.494922,
2014-04-07, 02:35:04,VALID,917.989,VALID,0,VALID,93.0667,VALID,0,VALID,18.9257,VALID,111,VALID,0.920313,
2014-04-07, 02:36:04,VALID,917.967,VALID,0,VALID,93.0972,VALID,0,VALID,18.8853,VALID,120,VALID,0.882031,
2014-04-07, 02:37:04,VALID,917.94,VALID,0,VALID,93.181,VALID,0,VALID,18.8658,VALID,118,VALID,1.075,
2014-04-07, 02:38:04,VALID,917.9,VALID,0,VALID,93.2039,VALID,0,VALID,18.8658,VALID,121,VALID,0.926172,
2014-04-07, 02:39:04,VALID,917.881,VALID,0,VALID,93.2496,VALID,0,VALID,18.8658,VALID,116,VALID,0.778906,
2014-04-07, 02:40:04,VALID,917.87,VALID,0,VALID,93.3182,VALID,0,VALID,18.8658,VALID,133,VALID,1.26133,
2014-04-07, 02:41:04,VALID,917.841,VALID,0,VALID,93.3411,VALID,0,VALID,18.8658,VALID,121,VALID,1.2043,
2014-04-07, 02:42:04,VALID,917.812,VALID,0,VALID,93.4097,VALID,0,VALID,18.8463,VALID,130,VALID,1.09766,
2014-04-07, 02:43:04,VALID,917.826,VALID,0,VALID,93.5012,VALID,0,VALID,18.8463,VALID,140,VALID,1.01055,
2014-04-07, 02:44:04,VALID,917.82,VALID,0,VALID,93.5546,VALID,0,VALID,18.8268,VALID,137,VALID,1.32617,
2014-04-07, 02:45:04,VALID,917.81,VALID,0,VALID,93.6079,VALID,0,VALID,18.8463,VALID,129,VALID,1.60859,
2014-04-07, 02:46:04,VALID,917.824,VALID,0,VALID,93.6308,VALID,0,VALID,18.8658,VALID,129,VALID,1.1418,
2014-04-07, 02:47:04,VALID,917.812,VALID,0,VALID,93.6079,VALID,0,VALID,18.8463,VALID,131,VALID,1.71094,
2014-04-07, 02:48:04,VALID,917.828,VALID,0,VALID,93.5622,VALID,0,VALID,18.8658,VALID,133,VALID,1.50586,
2014-04-07, 02:49:04,VALID,917.817,VALID,0,VALID,93.5393,VALID,0,VALID,18.8867,VALID,140,VALID,0.998828,
2014-04-07, 02:50:04,VALID,917.842,VALID,0,VALID,93.5317,VALID,0,VALID,18.8672,VALID,133,VALID,1.19219,
2014-04-07, 02:51:04,VALID,917.849,VALID,0,VALID,93.5546,VALID,0,VALID,18.8463,VALID,133,VALID,0.651172,
2014-04-07, 02:52:04,VALID,917.862,VALID,0,VALID,93.5927,VALID,0,VALID,18.8477,VALID,129,VALID,1.1082,
2014-04-07, 02:53:04,VALID,917.857,VALID,0,VALID,93.6232,VALID,0,VALID,18.8477,VALID,122,VALID,1.10156,
2014-04-07, 02:54:04,VALID,917.896,VALID,0,VALID,93.6384,VALID,0,VALID,18.8477,VALID,129,VALID,1.61445,
2014-04-07, 02:55:04,VALID,917.887,VALID,0,VALID,93.6765,VALID,0,VALID,18.8282,VALID,140,VALID,1.29727,
2014-04-07, 02:56:04,VALID,917.923,VALID,0,VALID,93.7375,VALID,0,VALID,18.8268,VALID,133,VALID,1.40156,
2014-04-07, 02:57:04,VALID,917.924,VALID,0,VALID,93.8061,VALID,0,VALID,18.8073,VALID,147,VALID,1.19766,
2014-04-07, 02:58:04,VALID,917.944,VALID,0,VALID,93.8747,VALID,0,VALID,18.7878,VALID,152,VALID,0.911719,
2014-04-07, 02:59:04,VALID,917.968,VALID,0,VALID,93.9357,VALID,0,VALID,18.8073,VALID,153,VALID,1.07031,
2014-04-07, 03:00:04,VALID,917.967,VALID,0,VALID,94.012,VALID,0,VALID,18.7683,VALID,153,VALID,0.526563,
2014-04-07, 03:01:04,VALID,918.004,VALID,0,VALID,94.0653,VALID,0,VALID,18.7878,VALID,153,VALID,0.496484,
2014-04-07, 03:02:04,VALID,918.026,VALID,0,VALID,94.1492,VALID,0,VALID,18.7892,VALID,153,VALID,0.0492188,
2014-04-07, 03:03:04,VALID,918.048,VALID,0,VALID,94.233,VALID,0,VALID,18.7892,VALID,153,VALID,0.373437,
2014-04-07, 03:04:04,VALID,918.059,VALID,0,VALID,94.294,VALID,0,VALID,18.7878,VALID,101,VALID,0.601563,
2014-04-07, 03:05:04,VALID,918.056,VALID,0,VALID,94.3245,VALID,0,VALID,18.7488,VALID,101,VALID,0.620703,
2014-04-07, 03:06:04,VALID,918.061,VALID,0,VALID,94.4084,VALID,0,VALID,18.7683,VALID,101,VALID,0.186328,
2014-04-07, 03:07:04,VALID,918.058,VALID,0,VALID,94.4389,VALID,0,VALID,18.7697,VALID,101,VALID,0.0910156,
2014-04-07, 03:08:04,VALID,918.048,VALID,0,VALID,94.4465,VALID,0,VALID,18.7488,VALID,101,VALID,0,
2014-04-07, 03:09:04,VALID,918.02,VALID,0,VALID,94.4922,VALID,0,VALID,18.7488,VALID,101,VALID,0,
2014-04-07, 03:10:04,VALID,918.031,VALID,0,VALID,94.5304,VALID,0,VALID,18.7098,VALID,101,VALID,0,
2014-04-07, 03:11:04,VALID,918.062,VALID,0,VALID,94.4541,VALID,0,VALID,18.7308,VALID,101,VALID,0.462109,
2014-04-07, 03:12:04,VALID,918.053,VALID,0,VALID,94.477,VALID,0,VALID,18.6513,VALID,101,VALID,0.433594,
2014-04-07, 03:13:04,VALID,918.021,VALID,0,VALID,94.5837,VALID,0,VALID,18.6918,VALID,101,VALID,0.639844,
2014-04-07, 03:14:04,VALID,918.021,VALID,0,VALID,94.6752,VALID,0,VALID,18.6319,VALID,101,VALID,0.775,
2014-04-07, 03:15:04,VALID,918.048,VALID,0,VALID,94.7057,VALID,0,VALID,18.6528,VALID,101,VALID,1.0043,
2014-04-07, 03:16:04,VALID,918.055,VALID,0,VALID,94.6371,VALID,0,VALID,18.6333,VALID,101,VALID,1.13086,
2014-04-07, 03:17:04,VALID,918.07,VALID,0,VALID,94.7133,VALID,0,VALID,18.5943,VALID,101,VALID,1.31211,
2014-04-07, 03:18:04,VALID,918.06,VALID,0,VALID,94.8124,VALID,0,VALID,18.5539,VALID,101,VALID,1.21758,
2014-04-07, 03:19:04,VALID,918.056,VALID,0,VALID,94.8963,VALID,0,VALID,18.5553,VALID,101,VALID,0.6125,
2014-04-07, 03:20:04,VALID,918.063,VALID,0,VALID,95.003,VALID,0,VALID,18.5149,VALID,101,VALID,0.848828,
2014-04-07, 03:21:04,VALID,918.055,VALID,0,VALID,95.1097,VALID,0,VALID,18.4954,VALID,101,VALID,1.02031,
2014-04-07, 03:22:04,VALID,918.063,VALID,0,VALID,95.2165,VALID,0,VALID,18.4954,VALID,101,VALID,1.07773,
2014-04-07, 03:23:04,VALID,918.086,VALID,0,VALID,95.3232,VALID,0,VALID,18.5163,VALID,101,VALID,1.17969,
2014-04-07, 03:24:04,VALID,918.07,VALID,0,VALID,95.3842,VALID,0,VALID,18.4773,VALID,101,VALID,0.794531,
2014-04-07, 03:25:04,VALID,918.077,VALID,0,VALID,95.4147,VALID,0,VALID,18.4968,VALID,101,VALID,0.951172,
2014-04-07, 03:26:04,VALID,918.03,VALID,0,VALID,95.4375,VALID,0,VALID,18.4773,VALID,101,VALID,0.851172,
2014-04-07, 03:27:04,VALID,918.037,VALID,0,VALID,95.4757,VALID,0,VALID,18.4968,VALID,101,VALID,0.588672,
2014-04-07, 03:28:04,VALID,918.057,VALID,0,VALID,95.5062,VALID,0,VALID,18.4773,VALID,101,VALID,0.642187,
2014-04-07, 03:29:04,VALID,918.06,VALID,0,VALID,95.5519,VALID,0,VALID,18.4564,VALID,101,VALID,0.829297,
2014-04-07, 03:30:04,VALID,918.1,VALID,0,VALID,95.5595,VALID,0,VALID,18.4564,VALID,101,VALID,0.687891,
2014-04-07, 03:31:04,VALID,918.122,VALID,0,VALID,95.5824,VALID,0,VALID,18.4564,VALID,101,VALID,0.698828,
2014-04-07, 03:32:04,VALID,918.126,VALID,0,VALID,95.6129,VALID,0,VALID,18.4773,VALID,101,VALID,0.3875,
2014-04-07, 03:33:04,VALID,918.186,VALID,0,VALID,95.651,VALID,0,VALID,18.4578,VALID,101,VALID,0.127344,
2014-04-07, 03:34:04,VALID,918.191,VALID,0,VALID,95.6739,VALID,0,VALID,18.4564,VALID,101,VALID,0,
2014-04-07, 03:35:04,VALID,918.226,VALID,0,VALID,95.6662,VALID,0,VALID,18.4773,VALID,101,VALID,0.0628906,
2014-04-07, 03:36:04,VALID,918.249,VALID,0,VALID,95.6891,VALID,0,VALID,18.4954,VALID,101,VALID,0,
2014-04-07, 03:37:04,VALID,918.268,VALID,0,VALID,95.6967,VALID,0,VALID,18.455,VALID,101,VALID,0.0886719,
2014-04-07, 03:38:04,VALID,918.278,VALID,0,VALID,95.6891,VALID,0,VALID,18.4759,VALID,101,VALID,0.357031,
2014-04-07, 03:39:04,VALID,918.307,VALID,0,VALID,95.712,VALID,0,VALID,18.4759,VALID,101,VALID,0.524219,
2014-04-07, 03:40:04,VALID,918.317,VALID,0,VALID,95.6739,VALID,0,VALID,18.4759,VALID,101,VALID,0.551562,
2014-04-07, 03:41:04,VALID,918.327,VALID,0,VALID,95.6891,VALID,0,VALID,18.4564,VALID,101,VALID,0.575391,
2014-04-07, 03:42:04,VALID,918.316,VALID,0,VALID,95.7196,VALID,0,VALID,18.4355,VALID,101,VALID,0.587109,
2014-04-07, 03:43:04,VALID,918.343,VALID,0,VALID,95.6815,VALID,0,VALID,18.4174,VALID,101,VALID,0.479688,
2014-04-07, 03:44:04,VALID,918.364,VALID,0,VALID,95.712,VALID,0,VALID,18.4564,VALID,101,VALID,0.66875,
2014-04-07, 03:45:04,VALID,918.35,VALID,0,VALID,95.7196,VALID,0,VALID,18.4578,VALID,101,VALID,0.814844,